Location: STAR School
(35.3054°N, 111.2976°W)
Time: 02:57:46
(UTC-07:00)

deb Explorer IX - Pass Details

Date: 31 May 2019
Orbit: 537 x 1115 km, 38.8° (Epoch: 19 June)

Event Time Altitude Azimuth Distance (km) Brightness Sun altitude
Rises 21:02:30 0° 214° (SSW) 3,387 ? -15.6°
Reaches altitude 10° 21:05:36 10° 201° (SSW) 2,341 ? -16.0°
Enters shadow 21:09:00 23° 165° (SSE) 1,511 ? -16.5°
